• In Uzbekistan
  • List of Countries
  • For 7 days
  • Water Temperature
  • Satellite Maps
  • Weather Map
  • Weather Widgets
  • user-avatar
    Login

    Hourly Weather Prochnowo

    Today, 22 July, Monday

    Time Temperature Precipitation Wind Pressure Humidity
    00:00 +16°C° 0 mm 2 mps 753 mmHg 92%
    01:00 +16°C° 0 mm 1 mps 754 mmHg 94%
    02:00 +15°C° 0 mm 1 mps 754 mmHg 95%
    03:00 +15°C° 0 mm 2 mps 754 mmHg 96%
    04:00 +15°C° 0 mm 2 mps 754 mmHg 97%
    05:00 +16°C° 0 mm 2 mps 754 mmHg 92%
    06:00 +17°C° 0 mm 2 mps 754 mmHg 87%
    07:00 +18°C° 0 mm 2 mps 754 mmHg 83%
    08:00 +19°C° 0 mm 3 mps 755 mmHg 75%
    09:00 +20°C° 0 mm 3 mps 755 mmHg 67%
    10:00 +21°C° 0 mm 3 mps 755 mmHg 59%
    11:00 +22°C° 0 mm 4 mps 755 mmHg 57%
    12:00 +22°C° 0 mm 4 mps 755 mmHg 55%
    13:00 +23°C° 0 mm 4 mps 755 mmHg 53%
    14:00 +23°C° 0 mm 4 mps 755 mmHg 54%
    15:00 +23°C° 0 mm 4 mps 754 mmHg 55%
    16:00 +22°C° 0 mm 3 mps 754 mmHg 57%
    17:00 +21°C° 0.1 mm 3 mps 754 mmHg 64%
    18:00 +20°C° 0.1 mm 3 mps 754 mmHg 71%
    19:00 +18°C° 0.1 mm 3 mps 754 mmHg 79%
    20:00 +18°C° 0.1 mm 3 mps 754 mmHg 82%
    21:00 +17°C° 0.1 mm 2 mps 754 mmHg 86%
    22:00 +18°C° 0.1 mm 1 mps 754 mmHg 89%
    23:00 +16°C° 0 mm 1 mps 754 mmHg 90%

    Tomorrow, 23 July, Tuesday

    Time Temperature Precipitation Wind Pressure Humidity
    00:00 +16°C° 0 mm 2 mps 754 mmHg 90%
    01:00 +16°C° 0 mm 2 mps 754 mmHg 91%
    02:00 +16°C° 0.3 mm 2 mps 753 mmHg 92%
    03:00 +16°C° 0.3 mm 2 mps 753 mmHg 94%
    04:00 +16°C° 0.3 mm 2 mps 753 mmHg 96%
    05:00 +17°C° 0 mm 2 mps 753 mmHg 95%
    06:00 +17°C° 0 mm 3 mps 753 mmHg 94%
    07:00 +18°C° 0 mm 3 mps 752 mmHg 94%
    08:00 +19°C° 0 mm 4 mps 753 mmHg 91%
    09:00 +19°C° 0 mm 4 mps 753 mmHg 88%
    10:00 +20°C° 0 mm 4 mps 753 mmHg 85%
    11:00 +21°C° 0 mm 4 mps 753 mmHg 82%
    12:00 +21°C° 0 mm 4 mps 753 mmHg 80%
    13:00 +22°C° 0 mm 4 mps 753 mmHg 77%
    14:00 +22°C° 0 mm 4 mps 753 mmHg 75%
    15:00 +23°C° 0 mm 4 mps 753 mmHg 74%
    16:00 +23°C° 0 mm 4 mps 753 mmHg 72%
    17:00 +22°C° 0 mm 4 mps 753 mmHg 74%
    18:00 +22°C° 0 mm 3 mps 752 mmHg 76%
    19:00 +21°C° 0 mm 3 mps 752 mmHg 78%
    20:00 +20°C° 0 mm 2 mps 752 mmHg 83%
    21:00 +19°C° 0 mm 2 mps 753 mmHg 88%
    22:00 +19°C° 0 mm 1 mps 753 mmHg 92%
    23:00 +19°C° 0 mm 1 mps 753 mmHg 93%

    Day after tomorrow, 24 July, Wednesday

    Time Temperature Precipitation Wind Pressure Humidity
    00:00 +18°C° 0 mm 1 mps 753 mmHg 94%
    01:00 +18°C° 0 mm 1 mps 752 mmHg 96%
    02:00 +18°C° 0 mm 1 mps 752 mmHg 96%
    03:00 +18°C° 0 mm 1 mps 752 mmHg 96%
    04:00 +16°C° 0 mm 1 mps 752 mmHg 97%
    05:00 +19°C° 0 mm 1 mps 752 mmHg 92%
    06:00 +20°C° 0 mm 1 mps 752 mmHg 87%
    07:00 +22°C° 0 mm 1 mps 752 mmHg 82%
    08:00 +23°C° 0 mm 1 mps 753 mmHg 76%
    09:00 +25°C° 0 mm 1 mps 753 mmHg 70%
    10:00 +26°C° 0 mm 2 mps 753 mmHg 64%
    11:00 +27°C° 0 mm 2 mps 753 mmHg 61%
    12:00 +27°C° 0 mm 2 mps 753 mmHg 58%
    13:00 +28°C° 0 mm 2 mps 753 mmHg 56%
    14:00 +28°C° 0 mm 2 mps 752 mmHg 54%
    15:00 +29°C° 0 mm 2 mps 752 mmHg 53%
    16:00 +29°C° 0 mm 2 mps 752 mmHg 52%
    17:00 +28°C° 0 mm 2 mps 752 mmHg 58%
    18:00 +27°C° 0 mm 2 mps 752 mmHg 65%
    19:00 +25°C° 0 mm 2 mps 752 mmHg 72%
    20:00 +24°C° 0 mm 2 mps 752 mmHg 77%
    21:00 +23°C° 0 mm 2 mps 753 mmHg 83%
    22:00 +20°C° 0 mm 2 mps 753 mmHg 89%
    23:00 +20°C° 0 mm 2 mps 753 mmHg 90%

    25 July, Thursday

    Time Temperature Precipitation Wind Pressure Humidity
    00:00 +19°C° 0 mm 2 mps 753 mmHg 90%
    01:00 +20°C° 0 mm 1 mps 753 mmHg 91%
    02:00 +20°C° 0 mm 1 mps 753 mmHg 92%
    03:00 +19°C° 0 mm 1 mps 753 mmHg 93%
    04:00 +19°C° 0 mm 1 mps 753 mmHg 94%
    05:00 +20°C° 0 mm 1 mps 753 mmHg 88%
    06:00 +22°C° 0 mm 1 mps 753 mmHg 82%
    07:00 +23°C° 0 mm 1 mps 753 mmHg 76%
    08:00 +25°C° 0 mm 1 mps 754 mmHg 69%
    09:00 +27°C° 0 mm 1 mps 754 mmHg 62%
    10:00 +29°C° 0 mm 1 mps 754 mmHg 55%
    11:00 +29°C° 0 mm 1 mps 754 mmHg 52%
    12:00 +30°C° 0 mm 1 mps 754 mmHg 49%
    13:00 +31°C° 0 mm 1 mps 754 mmHg 46%
    14:00 +30°C° 0 mm 2 mps 753 mmHg 47%
    15:00 +30°C° 0 mm 2 mps 753 mmHg 48%
    16:00 +30°C° 0 mm 2 mps 753 mmHg 49%
    17:00 +29°C° 0 mm 2 mps 753 mmHg 55%
    18:00 +27°C° 0 mm 3 mps 753 mmHg 62%
    19:00 +26°C° 0 mm 3 mps 753 mmHg 68%
    20:00 +25°C° 0 mm 2 mps 753 mmHg 71%
    21:00 +24°C° 0 mm 2 mps 753 mmHg 75%
    22:00 +21°C° 0 mm 2 mps 753 mmHg 78%
    23:00 +21°C° 0 mm 2 mps 753 mmHg 79%

    26 July, Friday

    Time Temperature Precipitation Wind Pressure Humidity
    00:00 +20°C° 0 mm 2 mps 754 mmHg 80%
    01:00 +19°C° 0 mm 3 mps 754 mmHg 82%
    02:00 +18°C° 0 mm 2 mps 753 mmHg 84%
    03:00 +18°C° 0 mm 2 mps 753 mmHg 86%
    04:00 +17°C° 0 mm 2 mps 753 mmHg 88%
    05:00 +18°C° 0 mm 2 mps 753 mmHg 83%
    06:00 +20°C° 0 mm 2 mps 753 mmHg 77%
    07:00 +21°C° 0 mm 2 mps 753 mmHg 72%
    08:00 +24°C° 0 mm 3 mps 753 mmHg 64%
    09:00 +25°C° 0 mm 3 mps 754 mmHg 56%
    10:00 +27°C° 0 mm 3 mps 754 mmHg 48%
    11:00 +28°C° 0 mm 3 mps 753 mmHg 45%
    12:00 +28°C° 0 mm 3 mps 753 mmHg 43%
    13:00 +29°C° 0 mm 3 mps 753 mmHg 41%
    14:00 +29°C° 0 mm 3 mps 752 mmHg 42%
    15:00 +29°C° 0 mm 3 mps 752 mmHg 43%
    16:00 +30°C° 0 mm 3 mps 752 mmHg 45%
    17:00 +28°C° 0 mm 3 mps 752 mmHg 50%
    18:00 +27°C° 0 mm 2 mps 751 mmHg 56%
    19:00 +26°C° 0 mm 2 mps 751 mmHg 62%
    20:00 +25°C° 0 mm 2 mps 751 mmHg 66%
    21:00 +24°C° 0 mm 3 mps 751 mmHg 71%
    22:00 +22°C° 0 mm 3 mps 752 mmHg 76%
    23:00 +21°C° 0 mm 3 mps 752 mmHg 79%

    27 July, Saturday

    Time Temperature Precipitation Wind Pressure Humidity
    00:00 +20°C° 0 mm 3 mps 752 mmHg 82%
    01:00 +19°C° 0 mm 2 mps 752 mmHg 85%
    02:00 +19°C° 0 mm 2 mps 751 mmHg 88%
    03:00 +19°C° 0 mm 2 mps 751 mmHg 90%
    04:00 +18°C° 0 mm 2 mps 751 mmHg 92%
    05:00 +20°C° 0 mm 2 mps 751 mmHg 86%
    06:00 +21°C° 0 mm 2 mps 751 mmHg 79%
    07:00 +23°C° 0 mm 2 mps 751 mmHg 73%
    08:00 +25°C° 0 mm 2 mps 751 mmHg 66%
    09:00 +27°C° 0 mm 2 mps 751 mmHg 58%
    10:00 +29°C° 0 mm 3 mps 751 mmHg 50%
    11:00 +29°C° 0 mm 2 mps 751 mmHg 50%
    12:00 +29°C° 0 mm 2 mps 750 mmHg 49%
    13:00 +29°C° 0 mm 2 mps 750 mmHg 48%
    14:00 +29°C° 0 mm 2 mps 750 mmHg 48%
    15:00 +29°C° 0 mm 3 mps 749 mmHg 49%
    16:00 +29°C° 0 mm 3 mps 749 mmHg 49%
    17:00 +28°C° 0 mm 3 mps 749 mmHg 54%
    18:00 +26°C° 0 mm 2 mps 749 mmHg 59%
    19:00 +25°C° 0 mm 2 mps 749 mmHg 64%
    20:00 +24°C° 0.4 mm 2 mps 749 mmHg 70%
    21:00 +21°C° 0.4 mm 2 mps 749 mmHg 77%
    22:00 +20°C° 0.4 mm 2 mps 749 mmHg 83%
    23:00 +20°C° 0.3 mm 2 mps 749 mmHg 85%
    Show more